Home   Weather   Coquitlam   Past weeks

Flag for Canada Past Weather in Coquitlam, British Columbia, Canada — Yesterday and Last 2 Weeks

Now
40 °F

Quite cool.


Feels Like: 40 °F
Forecast: 37 / 47 °F
Wind: 2 mph from Northeast

Location: P. Meadows Coastal Station

Current Time: Feb 20, 2017 at 3:23:15 am

Latest Report: Feb 20, 2017 at 3:00 am


Visibility: N/A

Pressure: 29.60 "Hg

Humidity: 98%

Dew Point: 40 °F

Location of CoquitlamLocation

Past Weather in Coquitlam — Graph

°F

Coquitlam Temperature Yesterday

Maximum temperature yesterday: 45 °F (at 3:00 pm)
Minimum temperature yesterday: 39 °F (at 7:00 am)
Average temperature yesterday: 42 °F

High & Low Weather Summary for the Past Weeks

 TemperatureHumidityPressure
High57 °F (Feb 15, 10:00 pm)100% (Feb 9, 5:00 am)30.55 "Hg (Feb 9, 5:00 am)
Low11 °F (Feb 7, 10:00 pm)54% (Feb 13, 3:00 pm)29.17 "Hg (Feb 9, 2:00 pm)
Average37 °F87%29.78 "Hg
* Reported Feb 5 2:00 am — Feb 20 2:00 am, Coquitlam, Weather by CustomWeather, © 2017

Note: Actual official high and low records may vary slightly from our data, if they occured in-between our weather recording intervals... More about our weather records

Advertising

Coquitlam Weather History for the Previous 24 Hours

Scroll right to see more
 ConditionsComfort  
Time TempWeatherWind HumidityBarometerVisibility
2:00 am
Mon, Feb 20
44 °FQuite cool.2 mph86%29.60 "HgN/A
1:00 am43 °FQuite cool.2 mph88%29.61 "HgN/A
12:00 am43 °FQuite cool.3 mph91%29.60 "HgN/A
11:00 pm
Sun, Feb 19
42 °FQuite cool.2 mph92%29.58 "HgN/A
10:00 pm42 °FQuite cool.3 mph85%29.57 "HgN/A
9:00 pm43 °FQuite cool.6 mph91%29.55 "HgN/A
8:00 pm43 °FQuite cool.7 mph93%29.53 "HgN/A
7:00 pm42 °FQuite cool.6 mph93%29.52 "HgN/A
6:00 pm43 °FQuite cool.3 mph92%29.50 "HgN/A
5:00 pm43 °FQuite cool.5 mph91%29.49 "HgN/A
4:00 pm42 °FQuite cool.8 mph95%29.47 "HgN/A
3:00 pm45 °FQuite cool.5 mph90%29.46 "HgN/A
2:00 pm44 °FQuite cool.7 mph89%29.46 "HgN/A
1:00 pm44 °FQuite cool.7 mph89%29.45 "HgN/A
12:00 pm43 °FQuite cool.3 mph92%29.46 "HgN/A
11:00 am43 °FQuite cool.3 mph92%29.45 "HgN/A
10:00 am42 °FQuite cool.7 mph85%29.42 "HgN/A
9:00 am41 °FQuite cool.5 mph93%29.42 "HgN/A
8:00 am40 °FChilly.1 mph94%29.41 "HgN/A
7:00 am39 °FChilly.1 mph94%29.40 "HgN/A
6:00 am40 °FChilly.2 mph95%29.39 "HgN/A
5:00 am40 °FChilly.1 mph94%29.40 "HgN/A
4:00 am40 °FQuite cool.1 mph93%29.41 "HgN/A
3:00 am41 °FQuite cool.3 mph93%29.41 "HgN/A
Weather by CustomWeather, © 2017

See weather overviewHow to use our weather pages